EW8862 Weather Reports


Display with metric or nautical units.
time (UTC)temp
F
wind
direction
speed
MPH
gust
MPH
rain 1hr
in
rain 24hr
in
rain mn
in
humidity
%
barometer
mb
20260507113026 59 65 1.0 2.0 0.00 0.00 0.00 44 1016.3
20260507111516 59 191 1.0 4.0 0.00 0.00 0.00 45 1016.3
20260507110013 58 54 1.0 4.0 0.00 0.00 0.00 48 1016.4
20260507104517 57 64 0.0 3.0 0.00 0.00 0.00 50 1016.5
20260507103026 57 40 0.0 3.0 0.00 0.00 0.00 51 1016.5
20260507101524 57 34 1.0 3.0 0.00 0.00 0.00 53 1016.6
20260507100008 56 243 0.0 1.0 0.00 0.00 0.00 56 1016.8
20260507094513 55 87 1.0 2.0 0.00 0.00 0.00 55 1016.7
20260507093017 55 246 1.0 4.0 0.00 0.00 0.00 58 1016.6
20260507091524 54 266 1.0 3.0 0.00 0.00 0.00 65 1016.7
20260507090035 53 28 1.0 3.0 0.00 0.00 0.00 73 1016.7
20260507084517 52 55 1.0 2.0 0.00 0.00 0.00 77 1016.8
20260507083016 51 357 0.0 2.0 0.00 0.00 0.00 80 1016.8
20260507081522 50 273 0.0 3.0 0.00 0.00 0.00 82 1016.8
20260507080028 49 320 1.0 2.0 0.00 0.00 0.00 84 1016.8
20260507074538 49 42 1.0 3.0 0.00 0.00 0.00 85 1016.7
20260507073012 48 25 0.0 2.0 0.00 0.00 0.00 87 1016.7
20260507071514 46 75 1.0 2.0 0.00 0.00 0.00 89 1016.6
20260507070024 44 30 0.0 1.0 0.00 0.00 0.00 90 1016.7
20260507064525 43 30 0.0 2.0 0.00 0.00 0.00 91 1016.7
20260507063034 43 30 0.0 1.0 0.00 0.00 0.00 92 1016.6
20260507061514 42 30 0.0 1.0 0.00 0.00 0.00 93 1016.6
20260507060020 41 30 0.0 1.0 0.00 0.00 0.00 93 1016.6
20260507054525 39 30 0.0 0.0 0.00 0.00 0.00 94 1016.5
20260507053026 38 30 0.0 0.0 0.00 0.00 0.00 93 1016.3
20260507051514 37 30 0.0 0.0 0.00 0.00 0.00 92 1016.2
20260507050018 37 30 0.0 0.0 0.00 0.00 0.00 91 1016.2
20260507044525 37 30 0.0 0.0 0.00 0.00 0.00 92 1016.1
20260507043026 37 30 0.0 0.0 0.00 0.00 0.00 91 1016.0
20260507041511 37 30 0.0 0.0 0.00 0.00 0.00 91 1016.1
20260507040016 37 30 0.0 0.0 0.00 0.00 0.00 90 1016.1
20260507034534 38 30 0.0 0.0 0.00 0.00 0.00 91 1016.0
20260507033024 38 30 0.0 0.0 0.00 0.00 0.00 90 1016.0
20260507031527 38 30 0.0 0.0 0.00 0.00 0.00 90 1016.0
20260507030015 39 30 0.0 0.0 0.00 0.00 0.00 90 1016.0
20260507024530 40 30 0.0 0.0 0.00 0.00 0.00 90 1015.9
20260507023022 40 30 0.0 0.0 0.00 0.00 0.00 90 1015.9
20260507021526 40 30 0.0 1.0 0.00 0.00 0.00 90 1016.0
20260507020030 41 52 0.0 0.0 0.00 0.00 0.00 89 1015.9
20260507014524 41 53 0.0 1.0 0.00 0.00 0.00 89 1015.8
20260507013016 41 52 0.0 1.0 0.00 0.00 0.00 89 1015.9
20260507011535 42 52 0.0 1.0 0.00 0.00 0.00 88 1015.9
20260507010026 42 52 0.0 1.0 0.00 0.00 0.00 89 1015.9
20260507004527 42 52 0.0 1.0 0.00 0.00 0.00 88 1015.9
20260507003016 43 52 0.0 1.0 0.00 0.00 0.00 87 1015.9
20260507001519 43 52 0.0 1.0 0.00 0.00 0.00 86 1015.9
20260507000024 43 52 0.0 1.0 0.00 0.00 0.00 86 1015.9
20260506234526 44 52 0.0 1.0 0.00 0.00 0.00 85 1015.8
20260506233028 44 53 0.0 2.0 0.00 0.00 0.00 85 1015.7
20260506231517 45 46 0.0 3.0 0.00 0.00 0.00 84 1015.7
20260506230020 45 58 1.0 2.0 0.00 0.00 0.00 82 1015.7
20260506224523 46 57 0.0 2.0 0.00 0.00 0.00 81 1015.7
20260506223028 46 53 0.0 1.0 0.00 0.00 0.00 80 1015.6
20260506221530 47 54 1.0 2.0 0.00 0.00 0.00 79 1015.6
20260506220018 48 46 1.0 3.0 0.00 0.00 0.00 77 1015.6
20260506214524 48 50 1.0 3.0 0.00 0.00 0.00 75 1015.5
20260506213026 49 50 0.0 4.0 0.00 0.00 0.00 73 1015.5
20260506211525 50 48 1.0 3.0 0.00 0.00 0.00 72 1015.5
20260506210027 50 48 0.0 2.0 0.00 0.00 0.00 69 1015.3
20260506204524 51 74 1.0 4.0 0.00 0.00 0.00 67 1015.2
20260506203026 51 79 0.0 3.0 0.00 0.00 0.00 65 1015.1
20260506201528 52 48 1.0 3.0 0.00 0.00 0.00 62 1015.0
20260506200029 52 46 1.0 5.0 0.00 0.00 0.00 61 1014.8
20260506194534 52 191 1.0 4.0 0.00 0.00 0.00 59 1014.7
20260506193017 53 50 2.0 4.0 0.00 0.00 0.00 58 1014.6
20260506191524 53 61 0.0 3.0 0.00 0.00 0.00 59 1014.5
20260506190028 53 31 2.0 5.0 0.00 0.00 0.00 58 1014.4
20260506184529 53 49 1.0 4.0 0.00 0.00 0.00 58 1014.4
20260506183030 54 35 1.0 4.0 0.00 0.00 0.00 58 1014.2
20260506181520 54 42 1.0 6.0 0.00 0.00 0.00 57 1014.0
20260506180030 54 60 2.0 4.0 0.00 0.00 0.00 57 1013.7
20260506174528 54 65 1.0 4.0 0.00 0.00 0.00 56 1013.7
20260506173030 54 26 2.0 5.0 0.00 0.00 0.00 55 1013.7
20260506171529 54 82 2.0 6.0 0.00 0.00 0.00 55 1013.6
20260506170022 55 83 1.0 7.0 0.00 0.00 0.00 55 1013.6
20260506164525 55 59 1.0 6.0 0.00 0.00 0.00 56 1013.6
20260506163028 55 63 2.0 6.0 0.00 0.00 0.00 56 1013.7
20260506161530 55 51 2.0 7.0 0.00 0.00 0.00 56 1013.6
20260506160030 56 90 1.0 5.0 0.00 0.00 0.00 55 1013.6
20260506154525 57 67 2.0 9.0 0.00 0.00 0.00 52 1013.7
20260506153039 58 64 2.0 9.0 0.00 0.00 0.00 52 1013.7
20260506151528 58 56 3.0 5.0 0.00 0.00 0.00 53 1013.8
20260506150030 57 79 1.0 6.0 0.00 0.00 0.00 53 1013.9
20260506144548 55 75 3.0 8.0 0.00 0.00 0.00 55 1014.0
20260506143023 57 75 2.0 7.0 0.00 0.00 0.00 53 1013.8
20260506141529 56 60 3.0 7.0 0.00 0.00 0.00 53 1013.8
20260506140015 56 47 3.0 10.0 0.00 0.00 0.00 52 1013.9
20260506134517 57 68 3.0 9.0 0.00 0.00 0.00 52 1013.8
20260506133023 57 55 2.0 7.0 0.00 0.00 0.00 51 1013.8
20260506131535 57 89 3.0 9.0 0.00 0.00 0.00 52 1013.7
20260506130022 57 49 3.0 11.0 0.00 0.00 0.00 50 1013.9
20260506124516 57 53 3.0 9.0 0.00 0.00 0.00 49 1013.8
20260506123033 57 34 3.0 7.0 0.00 0.00 0.00 49 1013.8
20260506121522 57 98 2.0 10.0 0.00 0.00 0.00 49 1013.7
20260506120031 56 80 2.0 9.0 0.00 0.00 0.00 50 1013.9
20260506114518 55 63 2.0 7.0 0.00 0.00 0.00 52 1013.9